Time,TemperatureF,DewpointF,PressureIn,WindDirection,WindDirectionDegrees,WindSpeedMPH,WindSpeedGustMPH,Humidity,HourlyPrecipIn,Conditions,Clouds,dailyrainin,SoftwareType,DateUTC
2017-02-26 00:03:00,23.9,17.1,29.99,North,0,13.0,16.0,75,0.00,,,0.00,WeatherCatV2.41B14,2017-02-26 05:03:00,
2017-02-26 00:08:00,23.8,17.0,29.99,North,0,10.0,13.0,75,0.00,,,0.00,WeatherCatV2.41B14,2017-02-26 05:08:00,
2017-02-26 00:13:00,23.8,17.0,29.99,North,0,14.0,14.0,75,0.00,,,0.00,WeatherCatV2.41B14,2017-02-26 05:13:00,
2017-02-26 00:18:00,23.8,17.0,29.99,North,0,6.0,9.0,75,0.00,,,0.00,WeatherCatV2.41B14,2017-02-26 05:18:00,
2017-02-26 00:23:00,23.8,17.4,30.00,North,0,14.0,14.0,76,0.00,,,0.00,WeatherCatV2.41B14,2017-02-26 05:23:00,
2017-02-26 00:28:00,23.8,17.4,30.00,North,0,8.0,12.0,76,0.00,,,0.00,WeatherCatV2.41B14,2017-02-26 05:28:00,
2017-02-26 00:33:00,23.8,17.4,30.00,North,0,8.0,10.0,76,0.00,,,0.00,WeatherCatV2.41B14,2017-02-26 05:33:00,
2017-02-26 00:38:00,23.8,17.4,30.00,North,0,5.0,6.0,76,0.00,,,0.00,WeatherCatV2.41B14,2017-02-26 05:38:00,
2017-02-26 00:43:00,23.9,17.8,30.00,North,0,8.0,10.0,77,0.00,,,0.00,WeatherCatV2.41B14,2017-02-26 05:43:00,
2017-02-26 00:48:00,23.8,17.7,30.00,North,0,9.0,13.0,77,0.00,,,0.00,WeatherCatV2.41B14,2017-02-26 05:48:00,
2017-02-26 00:53:00,23.8,17.4,30.00,North,0,8.0,10.0,76,0.00,,,0.00,WeatherCatV2.41B14,2017-02-26 05:53:00,
2017-02-26 00:58:00,23.8,17.4,30.00,North,0,6.0,13.0,76,0.00,,,0.00,WeatherCatV2.41B14,2017-02-26 05:58:00,
2017-02-26 01:03:00,23.9,17.8,30.01,North,0,8.0,12.0,77,0.00,,,0.00,WeatherCatV2.41B14,2017-02-26 06:03:00,
2017-02-26 01:08:00,23.9,17.8,30.01,North,0,4.0,11.0,77,0.00,,,0.00,WeatherCatV2.41B14,2017-02-26 06:08:00,
2017-02-26 01:13:00,23.9,17.8,30.01,North,0,5.0,13.0,77,0.00,,,0.00,WeatherCatV2.41B14,2017-02-26 06:13:00,
2017-02-26 01:18:00,23.9,17.8,30.01,North,0,9.0,12.0,77,0.00,,,0.00,WeatherCatV2.41B14,2017-02-26 06:18:00,
2017-02-26 01:23:00,23.9,18.1,30.01,North,0,8.0,9.0,78,0.00,,,0.00,WeatherCatV2.41B14,2017-02-26 06:23:00,
2017-02-26 01:28:00,23.9,18.1,30.01,North,0,3.0,9.0,78,0.00,,,0.00,WeatherCatV2.41B14,2017-02-26 06:28:00,
2017-02-26 01:33:00,23.9,18.4,30.01,North,0,4.0,8.0,79,0.00,,,0.00,WeatherCatV2.41B14,2017-02-26 06:33:00,
2017-02-26 01:38:00,23.9,18.4,30.01,North,0,8.0,13.0,79,0.00,,,0.00,WeatherCatV2.41B14,2017-02-26 06:38:00,
2017-02-26 01:43:00,23.9,18.4,30.01,North,0,9.0,9.0,79,0.00,,,0.00,WeatherCatV2.41B14,2017-02-26 06:43:00,
2017-02-26 01:48:00,23.9,18.4,30.01,North,0,5.0,11.0,79,0.00,,,0.00,WeatherCatV2.41B14,2017-02-26 06:48:00,
2017-02-26 01:53:00,23.8,18.3,30.01,North,0,6.0,6.0,79,0.00,,,0.00,WeatherCatV2.41B14,2017-02-26 06:53:00,
2017-02-26 01:58:00,23.8,18.3,30.02,SE,126,4.0,9.0,79,0.00,,,0.00,WeatherCatV2.41B14,2017-02-26 06:58:00,
2017-02-26 02:03:00,23.8,18.3,30.02,North,0,5.0,6.0,79,0.00,,,0.00,WeatherCatV2.41B14,2017-02-26 07:03:00,
2017-02-26 02:08:00,23.8,18.3,30.02,North,0,3.0,6.0,79,0.00,,,0.00,WeatherCatV2.41B14,2017-02-26 07:08:00,
2017-02-26 02:13:00,23.9,18.4,30.02,North,0,8.0,12.0,79,0.00,,,0.00,WeatherCatV2.41B14,2017-02-26 07:13:00,
2017-02-26 02:14:00,23.9,18.4,30.02,North,0,8.0,9.0,79,0.00,,,0.00,WeatherCatV2.41B14,2017-02-26 07:14:00,
2017-02-26 02:19:00,23.9,18.4,30.02,North,0,3.0,8.0,79,0.00,,,0.00,WeatherCatV2.41B14,2017-02-26 07:19:00,
2017-02-26 02:24:00,23.9,18.4,30.02,North,0,3.0,9.0,79,0.00,,,0.00,WeatherCatV2.41B14,2017-02-26 07:24:00,
2017-02-26 02:29:00,23.9,18.4,30.03,North,0,6.0,12.0,79,0.00,,,0.00,WeatherCatV2.41B14,2017-02-26 07:29:00,
2017-02-26 02:34:00,23.9,18.4,30.03,North,0,2.0,4.0,79,0.00,,,0.00,WeatherCatV2.41B14,2017-02-26 07:34:00,
2017-02-26 02:39:00,23.9,18.4,30.03,North,0,3.0,8.0,79,0.00,,,0.00,WeatherCatV2.41B14,2017-02-26 07:39:00,
2017-02-26 02:44:00,24.0,18.5,30.03,North,0,5.0,8.0,79,0.00,,,0.00,WeatherCatV2.41B14,2017-02-26 07:44:00,
2017-02-26 02:49:00,24.0,18.5,30.03,SSE,157,2.0,8.0,79,0.00,,,0.00,WeatherCatV2.41B14,2017-02-26 07:49:00,
2017-02-26 02:54:00,24.0,18.5,30.03,North,0,4.0,9.0,79,0.00,,,0.00,WeatherCatV2.41B14,2017-02-26 07:54:00,
2017-02-26 02:59:00,24.0,18.5,30.03,South,170,5.0,7.0,79,0.00,,,0.00,WeatherCatV2.41B14,2017-02-26 07:59:00,
2017-02-26 03:04:00,24.1,18.8,30.03,North,0,3.0,6.0,80,0.00,,,0.00,WeatherCatV2.41B14,2017-02-26 08:04:00,
2017-02-26 03:09:00,24.1,18.8,30.03,South,177,3.0,4.0,80,0.00,,,0.00,WeatherCatV2.41B14,2017-02-26 08:09:00,
2017-02-26 03:14:00,24.1,18.8,30.03,North,0,5.0,11.0,80,0.00,,,0.00,WeatherCatV2.41B14,2017-02-26 08:14:00,
2017-02-26 03:19:00,24.2,18.9,30.03,North,0,8.0,11.0,80,0.00,,,0.00,WeatherCatV2.41B14,2017-02-26 08:19:00,
2017-02-26 03:24:00,24.2,18.9,30.03,North,0,2.0,7.0,80,0.00,,,0.00,WeatherCatV2.41B14,2017-02-26 08:24:00,
2017-02-26 03:29:00,24.2,19.2,30.04,North,0,3.0,8.0,81,0.00,,,0.00,WeatherCatV2.41B14,2017-02-26 08:29:00,
2017-02-26 03:34:00,24.2,19.2,30.03,North,0,6.0,9.0,81,0.00,,,0.00,WeatherCatV2.41B14,2017-02-26 08:34:00,
2017-02-26 03:39:00,24.2,19.2,30.03,North,0,3.0,11.0,81,0.00,,,0.00,WeatherCatV2.41B14,2017-02-26 08:39:00,
2017-02-26 03:44:00,24.1,19.1,30.03,SE,140,4.0,8.0,81,0.00,,,0.00,WeatherCatV2.41B14,2017-02-26 08:44:00,
2017-02-26 03:49:00,24.1,19.1,30.04,South,184,6.0,9.0,81,0.00,,,0.00,WeatherCatV2.41B14,2017-02-26 08:49:00,
2017-02-26 03:54:00,24.1,19.4,30.04,North,0,3.0,5.0,82,0.00,,,0.00,WeatherCatV2.41B14,2017-02-26 08:54:00,
2017-02-26 03:59:00,24.1,19.4,30.04,North,0,2.0,11.0,82,0.00,,,0.00,WeatherCatV2.41B14,2017-02-26 08:59:00,
2017-02-26 04:04:00,24.1,19.4,30.04,SE,146,4.0,5.0,82,0.00,,,0.00,WeatherCatV2.41B14,2017-02-26 09:04:00,
2017-02-26 04:09:00,24.1,19.4,30.05,North,0,4.0,10.0,82,0.00,,,0.00,WeatherCatV2.41B14,2017-02-26 09:09:00,
2017-02-26 04:14:00,24.2,19.5,30.05,North,0,3.0,5.0,82,0.00,,,0.00,WeatherCatV2.41B14,2017-02-26 09:14:00,
2017-02-26 04:19:00,24.2,19.5,30.05,ESE,110,1.0,6.0,82,0.00,,,0.00,WeatherCatV2.41B14,2017-02-26 09:19:00,
2017-02-26 04:24:00,24.3,19.6,30.05,North,0,8.0,9.0,82,0.00,,,0.00,WeatherCatV2.41B14,2017-02-26 09:24:00,
2017-02-26 04:29:00,24.3,19.6,30.05,South,186,1.0,9.0,82,0.00,,,0.00,WeatherCatV2.41B14,2017-02-26 09:29:00,
2017-02-26 04:34:00,24.3,19.6,30.06,North,0,5.0,10.0,82,0.00,,,0.00,WeatherCatV2.41B14,2017-02-26 09:34:00,
2017-02-26 04:39:00,24.3,19.6,30.06,North,0,9.0,9.0,82,0.00,,,0.00,WeatherCatV2.41B14,2017-02-26 09:39:00,
2017-02-26 04:44:00,24.3,19.6,30.06,SSE,167,5.0,13.0,82,0.00,,,0.00,WeatherCatV2.41B14,2017-02-26 09:44:00,
2017-02-26 04:49:00,24.2,19.2,30.06,ENE,67,2.0,9.0,81,0.00,,,0.00,WeatherCatV2.41B14,2017-02-26 09:49:00,
2017-02-26 04:54:00,24.2,19.2,30.06,North,0,3.0,4.0,81,0.00,,,0.00,WeatherCatV2.41B14,2017-02-26 09:54:00,
2017-02-26 04:59:00,24.2,19.2,30.06,North,0,4.0,8.0,81,0.00,,,0.00,WeatherCatV2.41B14,2017-02-26 09:59:00,
2017-02-26 05:04:00,24.2,19.2,30.07,North,0,5.0,5.0,81,0.00,,,0.00,WeatherCatV2.41B14,2017-02-26 10:04:00,
2017-02-26 05:09:00,24.1,19.1,30.07,North,0,4.0,6.0,81,0.00,,,0.00,WeatherCatV2.41B14,2017-02-26 10:09:00,
2017-02-26 05:14:00,24.1,19.1,30.07,South,169,1.0,6.0,81,0.00,,,0.00,WeatherCatV2.41B14,2017-02-26 10:14:00,
2017-02-26 05:19:00,24.0,19.3,30.07,North,0,3.0,4.0,82,0.00,,,0.00,WeatherCatV2.41B14,2017-02-26 10:19:00,
2017-02-26 05:24:00,24.0,19.3,30.07,North,0,5.0,10.0,82,0.00,,,0.00,WeatherCatV2.41B14,2017-02-26 10:24:00,
2017-02-26 05:29:00,23.9,19.2,30.07,North,0,1.0,4.0,82,0.00,,,0.00,WeatherCatV2.41B14,2017-02-26 10:29:00,
2017-02-26 05:34:00,23.8,19.1,30.07,North,0,4.0,4.0,82,0.00,,,0.00,WeatherCatV2.41B14,2017-02-26 10:34:00,
2017-02-26 05:39:00,23.8,19.1,30.07,North,0,0.0,0.0,82,0.00,,,0.00,WeatherCatV2.41B14,2017-02-26 10:39:00,
2017-02-26 05:44:00,23.8,19.1,30.07,North,0,0.0,3.0,82,0.00,,,0.00,WeatherCatV2.41B14,2017-02-26 10:44:00,
2017-02-26 05:49:00,23.7,19.0,30.07,North,0,0.0,4.0,82,0.00,,,0.00,WeatherCatV2.41B14,2017-02-26 10:49:00,
2017-02-26 05:54:00,23.6,19.2,30.07,North,0,0.0,4.0,83,0.00,,,0.00,WeatherCatV2.41B14,2017-02-26 10:54:00,
2017-02-26 05:59:00,23.5,19.1,30.07,North,0,0.0,3.0,83,0.00,,,0.00,WeatherCatV2.41B14,2017-02-26 10:59:00,
2017-02-26 06:04:00,23.4,19.0,30.07,North,0,0.0,0.0,83,0.00,,,0.00,WeatherCatV2.41B14,2017-02-26 11:04:00,
2017-02-26 06:09:00,23.3,18.9,30.07,North,0,0.0,0.0,83,0.00,,,0.00,WeatherCatV2.41B14,2017-02-26 11:09:00,
2017-02-26 06:14:00,23.2,18.8,30.07,SSE,163,0.0,0.0,83,0.00,,,0.00,WeatherCatV2.41B14,2017-02-26 11:14:00,
2017-02-26 06:19:00,23.1,18.7,30.07,North,0,0.0,0.0,83,0.00,,,0.00,WeatherCatV2.41B14,2017-02-26 11:19:00,
2017-02-26 06:24:00,23.0,18.6,30.08,South,177,0.0,0.0,83,0.00,,,0.00,WeatherCatV2.41B14,2017-02-26 11:24:00,
2017-02-26 06:29:00,22.9,18.8,30.07,SSE,156,0.0,3.0,84,0.00,,,0.00,WeatherCatV2.41B14,2017-02-26 11:29:00,
2017-02-26 06:34:00,22.7,18.6,30.07,SSE,167,0.0,0.0,84,0.00,,,0.00,WeatherCatV2.41B14,2017-02-26 11:34:00,
2017-02-26 06:39:00,22.6,18.5,30.07,SSE,167,0.0,0.0,84,0.00,,,0.00,WeatherCatV2.41B14,2017-02-26 11:39:00,
2017-02-26 06:44:00,22.5,18.4,30.07,SSE,167,0.0,0.0,84,0.00,,,0.00,WeatherCatV2.41B14,2017-02-26 11:44:00,
2017-02-26 06:49:00,22.4,18.6,30.08,SSE,167,0.0,0.0,85,0.00,,,0.00,WeatherCatV2.41B14,2017-02-26 11:49:00,
2017-02-26 06:54:00,22.2,18.4,30.08,SSE,167,0.0,0.0,85,0.00,,,0.00,WeatherCatV2.41B14,2017-02-26 11:54:00,
2017-02-26 06:59:00,22.0,18.2,30.08,SSE,167,0.0,0.0,85,0.00,,,0.00,WeatherCatV2.41B14,2017-02-26 11:59:00,
2017-02-26 07:04:00,21.9,18.1,30.08,SSE,167,0.0,0.0,85,0.00,,,0.00,WeatherCatV2.41B14,2017-02-26 12:04:00,
2017-02-26 07:09:00,21.7,17.9,30.08,SSE,167,0.0,0.0,85,0.00,,,0.00,WeatherCatV2.41B14,2017-02-26 12:09:00,
2017-02-26 07:14:00,21.5,17.7,30.08,SSE,163,0.0,0.0,85,0.00,,,0.00,WeatherCatV2.41B14,2017-02-26 12:14:00,
2017-02-26 07:19:00,21.2,17.4,30.08,South,180,0.0,0.0,85,0.00,,,0.00,WeatherCatV2.41B14,2017-02-26 12:19:00,
2017-02-26 07:24:00,21.0,17.5,30.08,SSE,155,0.0,0.0,86,0.00,,,0.00,WeatherCatV2.41B14,2017-02-26 12:24:00,
2017-02-26 07:29:00,20.8,17.3,30.08,SSE,155,0.0,0.0,86,0.00,,,0.00,WeatherCatV2.41B14,2017-02-26 12:29:00,
2017-02-26 07:34:00,20.6,17.4,30.08,SSE,155,0.0,0.0,87,0.00,,,0.00,WeatherCatV2.41B14,2017-02-26 12:34:00,
2017-02-26 07:39:00,20.6,17.6,30.08,SSE,155,0.0,0.0,88,0.00,,,0.00,WeatherCatV2.41B14,2017-02-26 12:39:00,
2017-02-26 07:44:00,20.5,17.5,30.08,SE,134,1.0,2.0,88,0.00,,,0.00,WeatherCatV2.41B14,2017-02-26 12:44:00,
2017-02-26 07:49:00,20.4,17.4,30.09,South,177,0.0,0.0,88,0.00,,,0.00,WeatherCatV2.41B14,2017-02-26 12:49:00,
2017-02-26 07:54:00,20.4,17.4,30.09,ESE,113,0.0,2.0,88,0.00,,,0.00,WeatherCatV2.41B14,2017-02-26 12:54:00,
2017-02-26 07:59:00,20.4,17.4,30.09,South,174,0.0,1.0,88,0.00,,,0.00,WeatherCatV2.41B14,2017-02-26 12:59:00,
2017-02-26 08:04:00,20.5,17.8,30.09,SSE,168,0.0,2.0,89,0.00,,,0.00,WeatherCatV2.41B14,2017-02-26 13:04:00,
2017-02-26 08:09:00,21.0,18.5,30.09,SSE,147,5.0,5.0,90,0.00,,,0.00,WeatherCatV2.41B14,2017-02-26 13:09:00,
2017-02-26 08:14:00,21.7,19.2,30.10,South,171,6.0,6.0,90,0.00,,,0.00,WeatherCatV2.41B14,2017-02-26 13:14:00,
2017-02-26 08:19:00,22.6,20.4,30.10,North,0,4.0,9.0,91,0.00,,,0.00,WeatherCatV2.41B14,2017-02-26 13:19:00,
2017-02-26 08:24:00,23.3,21.1,30.10,ESE,116,7.0,7.0,91,0.00,,,0.00,WeatherCatV2.41B14,2017-02-26 13:24:00,
2017-02-26 08:29:00,23.9,21.7,30.10,South,176,4.0,6.0,91,0.00,,,0.00,WeatherCatV2.41B14,2017-02-26 13:29:00,
2017-02-26 08:34:00,24.5,22.0,30.11,SSE,155,4.0,8.0,90,0.00,,,0.00,WeatherCatV2.41B14,2017-02-26 13:34:00,
2017-02-26 08:39:00,24.9,22.1,30.10,North,0,3.0,5.0,89,0.00,,,0.00,WeatherCatV2.41B14,2017-02-26 13:39:00,
2017-02-26 08:44:00,25.2,22.4,30.10,SSE,150,2.0,6.0,89,0.00,,,0.00,WeatherCatV2.41B14,2017-02-26 13:44:00,
2017-02-26 08:49:00,25.7,22.6,30.10,North,0,3.0,5.0,88,0.00,,,0.00,WeatherCatV2.41B14,2017-02-26 13:49:00,
2017-02-26 08:54:00,26.2,22.9,30.11,SSW,192,8.0,10.0,87,0.00,,,0.00,WeatherCatV2.41B14,2017-02-26 13:54:00,
2017-02-26 08:59:00,26.5,22.9,30.11,SSE,147,8.0,12.0,86,0.00,,,0.00,WeatherCatV2.41B14,2017-02-26 13:59:00,
2017-02-26 09:04:00,26.9,22.7,30.11,North,0,5.0,8.0,84,0.00,,,0.00,WeatherCatV2.41B14,2017-02-26 14:04:00,
2017-02-26 09:09:00,27.3,22.8,30.12,SE,140,11.0,11.0,83,0.00,,,0.00,WeatherCatV2.41B14,2017-02-26 14:09:00,
2017-02-26 09:14:00,27.6,22.8,30.12,North,0,5.0,11.0,82,0.00,,,0.00,WeatherCatV2.41B14,2017-02-26 14:14:00,
2017-02-26 09:19:00,27.9,22.5,30.11,South,169,10.0,10.0,80,0.00,,,0.00,WeatherCatV2.41B14,2017-02-26 14:19:00,
2017-02-26 09:24:00,28.2,22.5,30.11,North,0,6.0,13.0,79,0.00,,,0.00,WeatherCatV2.41B14,2017-02-26 14:24:00,
2017-02-26 09:29:00,28.4,22.7,30.11,South,175,6.0,8.0,79,0.00,,,0.00,WeatherCatV2.41B14,2017-02-26 14:29:00,
2017-02-26 09:34:00,28.7,22.4,30.12,South,177,4.0,9.0,77,0.00,,,0.00,WeatherCatV2.41B14,2017-02-26 14:34:00,
2017-02-26 09:39:00,28.8,22.5,30.11,North,0,2.0,7.0,77,0.00,,,0.00,WeatherCatV2.41B14,2017-02-26 14:39:00,
2017-02-26 09:44:00,29.0,22.4,30.11,SE,124,9.0,9.0,76,0.00,,,0.00,WeatherCatV2.41B14,2017-02-26 14:44:00,
2017-02-26 09:49:00,29.4,22.8,30.11,SE,124,5.0,11.0,76,0.00,,,0.00,WeatherCatV2.41B14,2017-02-26 14:49:00,
2017-02-26 09:54:00,29.7,22.1,30.11,SSE,150,9.0,10.0,73,0.00,,,0.00,WeatherCatV2.41B14,2017-02-26 14:54:00,
2017-02-26 09:59:00,30.1,22.5,30.11,NW,313,2.0,8.0,73,0.00,,,0.00,WeatherCatV2.41B14,2017-02-26 14:59:00,
2017-02-26 10:04:00,30.4,22.5,30.11,North,0,5.0,9.0,72,0.00,,,0.00,WeatherCatV2.41B14,2017-02-26 15:04:00,
2017-02-26 10:09:00,30.5,22.2,30.11,North,0,8.0,10.0,71,0.00,,,0.00,WeatherCatV2.41B14,2017-02-26 15:09:00,
2017-02-26 10:14:00,30.6,22.3,30.11,ESE,108,4.0,16.0,71,0.00,,,0.00,WeatherCatV2.41B14,2017-02-26 15:14:00,
2017-02-26 10:19:00,31.0,23.0,30.10,North,0,2.0,8.0,72,0.00,,,0.00,WeatherCatV2.41B14,2017-02-26 15:19:00,
2017-02-26 10:25:00,31.4,22.8,30.10,North,0,5.0,10.0,70,0.00,,,0.00,WeatherCatV2.41B14,2017-02-26 15:25:00,
2017-02-26 10:30:00,31.6,23.0,30.10,SSE,150,4.0,5.0,70,0.00,,,0.00,WeatherCatV2.41B14,2017-02-26 15:30:00,
2017-02-26 10:35:00,31.9,22.9,30.10,SSE,164,6.0,12.0,69,0.00,,,0.00,WeatherCatV2.41B14,2017-02-26 15:35:00,
2017-02-26 10:40:00,32.1,22.8,30.10,East,94,7.0,15.0,68,0.00,,,0.00,WeatherCatV2.41B14,2017-02-26 15:40:00,
2017-02-26 10:45:00,32.4,23.0,30.10,North,0,4.0,7.0,68,0.00,,,0.00,WeatherCatV2.41B14,2017-02-26 15:45:00,
2017-02-26 10:50:00,32.4,22.7,30.10,SSE,159,8.0,9.0,67,0.00,,,0.00,WeatherCatV2.41B14,2017-02-26 15:50:00,
2017-02-26 10:55:00,32.7,23.3,30.10,SSE,167,6.0,14.0,68,0.00,,,0.00,WeatherCatV2.41B14,2017-02-26 15:55:00,
2017-02-26 11:00:00,33.0,23.3,30.10,SSE,157,5.0,14.0,67,0.00,,,0.00,WeatherCatV2.41B14,2017-02-26 16:00:00,
2017-02-26 11:05:00,33.5,24.1,30.10,SSE,164,2.0,10.0,68,0.00,,,0.00,WeatherCatV2.41B14,2017-02-26 16:05:00,
2017-02-26 11:10:00,33.9,23.8,30.10,ESE,123,8.0,13.0,66,0.00,,,0.00,WeatherCatV2.41B14,2017-02-26 16:10:00,
2017-02-26 11:15:00,33.7,23.6,30.10,North,0,2.0,9.0,66,0.00,,,0.00,WeatherCatV2.41B14,2017-02-26 16:15:00,
2017-02-26 11:20:00,33.6,23.5,30.10,SE,140,3.0,15.0,66,0.00,,,0.00,WeatherCatV2.41B14,2017-02-26 16:20:00,
2017-02-26 11:25:00,33.8,24.0,30.10,SSE,150,4.0,10.0,67,0.00,,,0.00,WeatherCatV2.41B14,2017-02-26 16:25:00,
2017-02-26 11:30:00,34.1,24.0,30.10,ENE,65,8.0,12.0,66,0.00,,,0.00,WeatherCatV2.41B14,2017-02-26 16:30:00,
2017-02-26 11:35:00,34.6,24.8,30.10,SE,139,13.0,17.0,67,0.00,,,0.00,WeatherCatV2.41B14,2017-02-26 16:35:00,
2017-02-26 11:40:00,34.6,24.1,30.10,North,0,1.0,16.0,65,0.00,,,0.00,WeatherCatV2.41B14,2017-02-26 16:40:00,
2017-02-26 11:45:00,34.7,23.8,30.10,SSE,161,7.0,11.0,64,0.00,,,0.00,WeatherCatV2.41B14,2017-02-26 16:45:00,
2017-02-26 11:50:00,34.6,24.1,30.10,North,0,8.0,14.0,65,0.00,,,0.00,WeatherCatV2.41B14,2017-02-26 16:50:00,
2017-02-26 11:55:00,34.7,24.2,30.10,North,0,9.0,17.0,65,0.00,,,0.00,WeatherCatV2.41B14,2017-02-26 16:55:00,
2017-02-26 12:00:00,34.9,24.7,30.10,East,94,4.0,9.0,66,0.00,,,0.00,WeatherCatV2.41B14,2017-02-26 17:00:00,
2017-02-26 12:05:00,35.3,25.1,30.10,ESE,107,6.0,16.0,66,0.00,,,0.00,WeatherCatV2.41B14,2017-02-26 17:05:00,
2017-02-26 12:10:00,35.5,24.9,30.09,ESE,122,10.0,13.0,65,0.00,,,0.00,WeatherCatV2.41B14,2017-02-26 17:10:00,
2017-02-26 12:15:00,35.7,24.4,30.09,South,184,6.0,19.0,63,0.00,,,0.00,WeatherCatV2.41B14,2017-02-26 17:15:00,
2017-02-26 12:20:00,35.7,24.7,30.09,SSE,161,6.0,12.0,64,0.00,,,0.00,WeatherCatV2.41B14,2017-02-26 17:20:00,
2017-02-26 12:25:00,35.9,24.5,30.08,East,87,3.0,11.0,63,0.00,,,0.00,WeatherCatV2.41B14,2017-02-26 17:25:00,
2017-02-26 12:30:00,36.1,25.1,30.09,ESE,107,7.0,15.0,64,0.00,,,0.00,WeatherCatV2.41B14,2017-02-26 17:30:00,
2017-02-26 12:35:00,36.2,24.5,30.08,North,0,3.0,15.0,62,0.00,,,0.00,WeatherCatV2.41B14,2017-02-26 17:35:00,
2017-02-26 12:40:00,36.5,25.1,30.08,ESE,123,4.0,16.0,63,0.00,,,0.00,WeatherCatV2.41B14,2017-02-26 17:40:00,
2017-02-26 12:45:00,37.0,25.6,30.08,ESE,121,3.0,8.0,63,0.00,,,0.00,WeatherCatV2.41B14,2017-02-26 17:45:00,
2017-02-26 12:50:00,37.0,25.2,30.09,South,184,9.0,18.0,62,0.00,,,0.00,WeatherCatV2.41B14,2017-02-26 17:50:00,
2017-02-26 12:55:00,37.0,24.8,30.08,SSE,168,7.0,14.0,61,0.00,,,0.00,WeatherCatV2.41B14,2017-02-26 17:55:00,
2017-02-26 13:00:00,37.1,24.9,30.08,SE,132,9.0,10.0,61,0.00,,,0.00,WeatherCatV2.41B14,2017-02-26 18:00:00,
2017-02-26 13:05:00,37.3,24.7,30.08,ESE,109,7.0,20.0,60,0.00,,,0.00,WeatherCatV2.41B14,2017-02-26 18:05:00,
2017-02-26 13:10:00,37.5,25.3,30.08,NW,316,2.0,19.0,61,0.00,,,0.00,WeatherCatV2.41B14,2017-02-26 18:10:00,
2017-02-26 13:15:00,37.9,24.9,30.07,SE,129,10.0,13.0,59,0.00,,,0.00,WeatherCatV2.41B14,2017-02-26 18:15:00,
2017-02-26 13:20:00,38.2,24.7,30.07,SE,137,5.0,12.0,58,0.00,,,0.00,WeatherCatV2.41B14,2017-02-26 18:20:00,
2017-02-26 13:25:00,38.4,25.3,30.07,ESE,105,4.0,13.0,59,0.00,,,0.00,WeatherCatV2.41B14,2017-02-26 18:25:00,
2017-02-26 13:30:00,38.5,25.0,30.06,NE,53,5.0,11.0,58,0.00,,,0.00,WeatherCatV2.41B14,2017-02-26 18:30:00,
2017-02-26 13:35:00,38.7,23.9,30.06,North,0,9.0,22.0,55,0.00,,,0.00,WeatherCatV2.41B14,2017-02-26 18:35:00,
2017-02-26 13:40:00,38.4,23.2,30.06,North,5,0.0,9.0,54,0.00,,,0.00,WeatherCatV2.41B14,2017-02-26 18:40:00,
2017-02-26 13:45:00,38.5,23.8,30.06,South,173,11.0,17.0,55,0.00,,,0.00,WeatherCatV2.41B14,2017-02-26 18:45:00,
2017-02-26 13:50:00,38.6,24.3,30.06,SSE,162,1.0,12.0,56,0.00,,,0.00,WeatherCatV2.41B14,2017-02-26 18:50:00,
2017-02-26 13:55:00,38.7,23.5,30.06,North,0,16.0,16.0,54,0.00,,,0.00,WeatherCatV2.41B14,2017-02-26 18:55:00,
2017-02-26 14:00:00,38.9,24.1,30.05,SW,215,18.0,18.0,55,0.00,,,0.00,WeatherCatV2.41B14,2017-02-26 19:00:00,
2017-02-26 14:05:00,39.3,25.4,30.05,North,0,5.0,8.0,57,0.00,,,0.00,WeatherCatV2.41B14,2017-02-26 19:05:00,
2017-02-26 14:10:00,39.4,24.6,30.05,SSE,150,3.0,14.0,55,0.00,,,0.00,WeatherCatV2.41B14,2017-02-26 19:10:00,
2017-02-26 14:16:00,39.8,24.5,30.04,North,0,2.0,3.0,54,0.00,,,0.00,WeatherCatV2.41B14,2017-02-26 19:16:00,
2017-02-26 14:21:00,40.1,24.8,30.04,SSE,155,9.0,15.0,54,0.00,,,0.00,WeatherCatV2.41B14,2017-02-26 19:21:00,
2017-02-26 14:26:00,40.2,24.9,30.04,SSE,153,8.0,10.0,54,0.00,,,0.00,WeatherCatV2.41B14,2017-02-26 19:26:00,
2017-02-26 14:27:00,40.2,24.9,30.04,SE,132,10.0,17.0,54,0.00,,,0.00,WeatherCatV2.41B14,2017-02-26 19:27:00,
2017-02-26 14:32:00,40.4,25.1,30.04,South,176,7.0,15.0,54,0.00,,,0.00,WeatherCatV2.41B14,2017-02-26 19:32:00,
2017-02-26 14:37:00,40.4,25.1,30.03,SSE,149,14.0,14.0,54,0.00,,,0.00,WeatherCatV2.41B14,2017-02-26 19:37:00,
2017-02-26 14:42:00,40.0,24.7,30.03,North,0,9.0,13.0,54,0.00,,,0.00,WeatherCatV2.41B14,2017-02-26 19:42:00,
2017-02-26 14:47:00,40.2,25.3,30.03,SE,140,9.0,13.0,55,0.00,,,0.00,WeatherCatV2.41B14,2017-02-26 19:47:00,
2017-02-26 14:52:00,40.3,25.0,30.03,NE,36,1.0,13.0,54,0.00,,,0.00,WeatherCatV2.41B14,2017-02-26 19:52:00,
2017-02-26 14:57:00,40.2,25.3,30.02,SSE,165,1.0,9.0,55,0.00,,,0.00,WeatherCatV2.41B14,2017-02-26 19:57:00,
2017-02-26 15:02:00,40.3,25.0,30.02,SSE,159,7.0,20.0,54,0.00,,,0.00,WeatherCatV2.41B14,2017-02-26 20:02:00,
2017-02-26 15:07:00,40.5,25.2,30.02,ENE,60,2.0,15.0,54,0.00,,,0.00,WeatherCatV2.41B14,2017-02-26 20:07:00,
2017-02-26 15:12:00,40.7,25.8,30.01,North,0,5.0,16.0,55,0.00,,,0.00,WeatherCatV2.41B14,2017-02-26 20:12:00,
2017-02-26 15:17:00,40.9,24.6,30.01,SSE,164,12.0,14.0,52,0.00,,,0.00,WeatherCatV2.41B14,2017-02-26 20:17:00,
2017-02-26 15:22:00,41.0,25.6,30.01,North,0,3.0,9.0,54,0.00,,,0.00,WeatherCatV2.41B14,2017-02-26 20:22:00,
2017-02-26 15:27:00,41.3,25.5,30.00,SSE,167,10.0,20.0,53,0.00,,,0.00,WeatherCatV2.41B14,2017-02-26 20:27:00,
2017-02-26 15:32:00,41.3,25.0,30.01,ESE,121,15.0,15.0,52,0.00,,,0.00,WeatherCatV2.41B14,2017-02-26 20:32:00,
2017-02-26 15:37:00,41.2,24.9,30.00,ENE,69,6.0,13.0,52,0.00,,,0.00,WeatherCatV2.41B14,2017-02-26 20:37:00,
2017-02-26 15:42:00,41.1,23.9,30.00,SSE,150,15.0,19.0,50,0.00,,,0.00,WeatherCatV2.41B14,2017-02-26 20:42:00,
2017-02-26 15:47:00,40.9,24.2,30.00,North,0,4.0,20.0,51,0.00,,,0.00,WeatherCatV2.41B14,2017-02-26 20:47:00,
2017-02-26 15:52:00,40.9,25.1,30.00,ESE,103,8.0,10.0,53,0.00,,,0.00,WeatherCatV2.41B14,2017-02-26 20:52:00,
2017-02-26 15:57:00,40.9,24.6,30.00,SSE,153,4.0,14.0,52,0.00,,,0.00,WeatherCatV2.41B14,2017-02-26 20:57:00,
2017-02-26 16:02:00,40.9,24.2,30.00,South,184,0.0,15.0,51,0.00,,,0.00,WeatherCatV2.41B14,2017-02-26 21:02:00,
2017-02-26 16:07:00,41.2,24.9,30.00,ESE,112,3.0,21.0,52,0.00,,,0.00,WeatherCatV2.41B14,2017-02-26 21:07:00,
2017-02-26 16:12:00,41.2,24.0,30.00,SSE,147,8.0,19.0,50,0.00,,,0.00,WeatherCatV2.41B14,2017-02-26 21:12:00,
2017-02-26 16:17:00,41.2,23.0,30.00,North,0,8.0,24.0,48,0.00,,,0.00,WeatherCatV2.41B14,2017-02-26 21:17:00,
2017-02-26 16:22:00,41.2,23.0,30.00,ESE,116,4.0,19.0,48,0.00,,,0.00,WeatherCatV2.41B14,2017-02-26 21:22:00,
2017-02-26 16:27:00,41.1,22.9,30.00,North,0,8.0,21.0,48,0.00,,,0.00,WeatherCatV2.41B14,2017-02-26 21:27:00,
2017-02-26 16:32:00,41.0,23.3,30.00,North,0,11.0,19.0,49,0.00,,,0.00,WeatherCatV2.41B14,2017-02-26 21:32:00,
2017-02-26 16:37:00,40.9,23.2,30.00,SSE,149,4.0,18.0,49,0.00,,,0.00,WeatherCatV2.41B14,2017-02-26 21:37:00,
2017-02-26 16:42:00,40.9,23.7,30.00,SE,144,9.0,14.0,50,0.00,,,0.00,WeatherCatV2.41B14,2017-02-26 21:42:00,
2017-02-26 16:47:00,40.8,23.6,30.00,North,0,9.0,19.0,50,0.00,,,0.00,WeatherCatV2.41B14,2017-02-26 21:47:00,
2017-02-26 16:52:00,40.7,24.0,30.01,North,0,4.0,12.0,51,0.00,,,0.00,WeatherCatV2.41B14,2017-02-26 21:52:00,
2017-02-26 16:57:00,40.7,23.5,30.00,North,0,12.0,15.0,50,0.00,,,0.00,WeatherCatV2.41B14,2017-02-26 21:57:00,
2017-02-26 17:02:00,40.7,24.0,30.00,SW,222,10.0,21.0,51,0.00,,,0.00,WeatherCatV2.41B14,2017-02-26 22:02:00,
2017-02-26 17:07:00,40.7,23.5,30.01,ESE,118,4.0,23.0,50,0.00,,,0.00,WeatherCatV2.41B14,2017-02-26 22:07:00,
2017-02-26 17:12:00,40.6,23.4,30.01,North,0,5.0,13.0,50,0.00,,,0.00,WeatherCatV2.41B14,2017-02-26 22:12:00,
2017-02-26 17:17:00,40.6,23.9,30.01,SSE,167,19.0,19.0,51,0.00,,,0.00,WeatherCatV2.41B14,2017-02-26 22:17:00,
2017-02-26 17:22:00,40.6,23.9,30.01,North,0,4.0,18.0,51,0.00,,,0.00,WeatherCatV2.41B14,2017-02-26 22:22:00,
2017-02-26 17:27:00,40.6,23.9,30.01,North,0,3.0,15.0,51,0.00,,,0.00,WeatherCatV2.41B14,2017-02-26 22:27:00,
2017-02-26 17:32:00,40.5,23.8,30.01,SSE,167,14.0,19.0,51,0.00,,,0.00,WeatherCatV2.41B14,2017-02-26 22:32:00,
2017-02-26 17:37:00,40.4,24.6,30.01,North,0,2.0,8.0,53,0.00,,,0.00,WeatherCatV2.41B14,2017-02-26 22:37:00,
2017-02-26 17:42:00,40.4,24.6,30.01,ESE,123,5.0,15.0,53,0.00,,,0.00,WeatherCatV2.41B14,2017-02-26 22:42:00,
2017-02-26 17:47:00,40.3,24.1,30.01,SSE,161,6.0,18.0,52,0.00,,,0.00,WeatherCatV2.41B14,2017-02-26 22:47:00,
2017-02-26 17:52:00,40.3,24.5,30.01,North,0,5.0,10.0,53,0.00,,,0.00,WeatherCatV2.41B14,2017-02-26 22:52:00,
2017-02-26 17:57:00,40.2,24.5,30.01,ESE,102,4.0,15.0,53,0.00,,,0.00,WeatherCatV2.41B14,2017-02-26 22:57:00,
2017-02-26 18:02:00,40.1,24.8,30.02,SSE,148,9.0,15.0,54,0.00,,,0.00,WeatherCatV2.41B14,2017-02-26 23:02:00,
2017-02-26 18:07:00,40.0,24.7,30.02,SE,140,11.0,15.0,54,0.00,,,0.00,WeatherCatV2.41B14,2017-02-26 23:07:00,
2017-02-26 18:12:00,39.9,24.6,30.02,North,0,3.0,12.0,54,0.00,,,0.00,WeatherCatV2.41B14,2017-02-26 23:12:00,
2017-02-26 18:17:00,39.7,24.9,30.02,North,0,8.0,11.0,55,0.00,,,0.00,WeatherCatV2.41B14,2017-02-26 23:17:00,
2017-02-26 18:22:00,39.6,24.8,30.02,North,0,1.0,9.0,55,0.00,,,0.00,WeatherCatV2.41B14,2017-02-26 23:22:00,
2017-02-26 18:27:00,39.4,25.0,30.02,ESE,123,3.0,11.0,56,0.00,,,0.00,WeatherCatV2.41B14,2017-02-26 23:27:00,
2017-02-26 18:32:00,39.2,24.8,30.02,North,0,0.0,10.0,56,0.00,,,0.00,WeatherCatV2.41B14,2017-02-26 23:32:00,
2017-02-26 18:37:00,39.0,25.1,30.02,SE,134,7.0,10.0,57,0.00,,,0.00,WeatherCatV2.41B14,2017-02-26 23:37:00,
2017-02-26 18:42:00,38.8,24.9,30.02,ESE,117,3.0,14.0,57,0.00,,,0.00,WeatherCatV2.41B14,2017-02-26 23:42:00,
2017-02-26 18:47:00,38.7,25.2,30.02,North,0,3.0,10.0,58,0.00,,,0.00,WeatherCatV2.41B14,2017-02-26 23:47:00,
2017-02-26 18:52:00,38.6,25.1,30.02,North,0,14.0,14.0,58,0.00,,,0.00,WeatherCatV2.41B14,2017-02-26 23:52:00,
2017-02-26 18:57:00,38.4,25.3,30.02,SSE,152,2.0,11.0,59,0.00,,,0.00,WeatherCatV2.41B14,2017-02-26 23:57:00,
2017-02-26 19:02:00,38.2,25.5,30.02,SSE,155,2.0,10.0,60,0.00,,,0.00,WeatherCatV2.41B14,2017-02-27 00:02:00,
2017-02-26 19:07:00,38.1,25.5,30.02,South,171,4.0,7.0,60,0.00,,,0.00,WeatherCatV2.41B14,2017-02-27 00:07:00,
2017-02-26 19:12:00,37.8,25.6,30.03,SSE,149,4.0,10.0,61,0.00,,,0.00,WeatherCatV2.41B14,2017-02-27 00:12:00,
2017-02-26 19:17:00,37.7,25.5,30.03,SSE,163,0.0,6.0,61,0.00,,,0.00,WeatherCatV2.41B14,2017-02-27 00:17:00,
2017-02-26 19:22:00,37.6,25.8,30.03,SSE,166,0.0,11.0,62,0.00,,,0.00,WeatherCatV2.41B14,2017-02-27 00:22:00,
2017-02-26 19:27:00,37.5,25.7,30.03,ESE,111,0.0,4.0,62,0.00,,,0.00,WeatherCatV2.41B14,2017-02-27 00:27:00,
2017-02-26 19:32:00,37.4,25.6,30.03,NE,55,2.0,8.0,62,0.00,,,0.00,WeatherCatV2.41B14,2017-02-27 00:32:00,
2017-02-26 19:37:00,37.3,25.9,30.03,SE,133,3.0,7.0,63,0.00,,,0.00,WeatherCatV2.41B14,2017-02-27 00:37:00,
2017-02-26 19:42:00,37.1,25.7,30.03,ESE,111,6.0,11.0,63,0.00,,,0.00,WeatherCatV2.41B14,2017-02-27 00:42:00,
2017-02-26 19:47:00,36.9,25.9,30.03,SE,141,3.0,10.0,64,0.00,,,0.00,WeatherCatV2.41B14,2017-02-27 00:47:00,
2017-02-26 19:52:00,36.8,25.8,30.03,ESE,105,0.0,4.0,64,0.00,,,0.00,WeatherCatV2.41B14,2017-02-27 00:52:00,
2017-02-26 19:57:00,36.6,25.6,30.03,SSE,161,5.0,6.0,64,0.00,,,0.00,WeatherCatV2.41B14,2017-02-27 00:57:00,
2017-02-26 20:02:00,36.6,26.0,30.03,North,0,1.0,4.0,65,0.00,,,0.00,WeatherCatV2.41B14,2017-02-27 01:02:00,
2017-02-26 20:07:00,36.4,25.8,30.03,SE,133,2.0,9.0,65,0.00,,,0.00,WeatherCatV2.41B14,2017-02-27 01:07:00,
2017-02-26 20:12:00,36.4,25.8,30.03,SSE,149,2.0,5.0,65,0.00,,,0.00,WeatherCatV2.41B14,2017-02-27 01:12:00,
2017-02-26 20:17:00,36.2,26.0,30.03,South,171,1.0,11.0,66,0.00,,,0.00,WeatherCatV2.41B14,2017-02-27 01:17:00,
2017-02-26 20:22:00,36.2,26.0,30.03,SSE,158,6.0,11.0,66,0.00,,,0.00,WeatherCatV2.41B14,2017-02-27 01:22:00,
2017-02-26 20:27:00,36.3,26.0,30.03,North,0,8.0,13.0,66,0.00,,,0.00,WeatherCatV2.41B14,2017-02-27 01:27:00,
2017-02-26 20:32:00,36.6,26.0,30.03,SE,124,7.0,16.0,65,0.00,,,0.00,WeatherCatV2.41B14,2017-02-27 01:32:00,
2017-02-26 20:37:00,36.9,26.2,30.04,SE,126,3.0,11.0,65,0.00,,,0.00,WeatherCatV2.41B14,2017-02-27 01:37:00,
2017-02-26 20:42:00,37.0,26.0,30.04,NE,42,4.0,9.0,64,0.00,,,0.00,WeatherCatV2.41B14,2017-02-27 01:42:00,
2017-02-26 20:47:00,37.1,26.1,30.04,ENE,72,2.0,9.0,64,0.00,,,0.00,WeatherCatV2.41B14,2017-02-27 01:47:00,
2017-02-26 20:52:00,37.2,25.8,30.04,SSE,156,1.0,10.0,63,0.00,,,0.00,WeatherCatV2.41B14,2017-02-27 01:52:00,
2017-02-26 20:57:00,37.2,25.8,30.04,SSE,149,4.0,6.0,63,0.00,,,0.00,WeatherCatV2.41B14,2017-02-27 01:57:00,
2017-02-26 21:02:00,37.1,25.7,30.04,South,169,7.0,12.0,63,0.00,,,0.00,WeatherCatV2.41B14,2017-02-27 02:02:00,
2017-02-26 21:07:00,37.2,25.8,30.04,South,174,5.0,13.0,63,0.00,,,0.00,WeatherCatV2.41B14,2017-02-27 02:07:00,
2017-02-26 21:12:00,37.2,25.8,30.05,SSE,155,6.0,11.0,63,0.00,,,0.00,WeatherCatV2.41B14,2017-02-27 02:12:00,
2017-02-26 21:17:00,37.1,25.7,30.05,SSE,160,6.0,14.0,63,0.00,,,0.00,WeatherCatV2.41B14,2017-02-27 02:17:00,
2017-02-26 21:22:00,37.0,25.2,30.05,SSE,155,2.0,10.0,62,0.00,,,0.00,WeatherCatV2.41B14,2017-02-27 02:22:00,
2017-02-26 21:27:00,36.9,25.5,30.05,North,0,1.0,10.0,63,0.00,,,0.00,WeatherCatV2.41B14,2017-02-27 02:27:00,
2017-02-26 21:32:00,36.8,25.4,30.06,North,0,3.0,8.0,63,0.00,,,0.00,WeatherCatV2.41B14,2017-02-27 02:32:00,
2017-02-26 21:37:00,36.8,25.0,30.06,SSE,165,2.0,8.0,62,0.00,,,0.00,WeatherCatV2.41B14,2017-02-27 02:37:00,
2017-02-26 21:42:00,36.7,24.9,30.06,SSE,153,0.0,3.0,62,0.00,,,0.00,WeatherCatV2.41B14,2017-02-27 02:42:00,
2017-02-26 21:47:00,36.6,24.8,30.06,North,0,0.0,0.0,62,0.00,,,0.00,WeatherCatV2.41B14,2017-02-27 02:47:00,
2017-02-26 21:52:00,36.4,25.0,30.07,ESE,103,1.0,10.0,63,0.00,,,0.00,WeatherCatV2.41B14,2017-02-27 02:52:00,
2017-02-26 21:57:00,36.1,24.7,30.06,SE,143,4.0,6.0,63,0.00,,,0.00,WeatherCatV2.41B14,2017-02-27 02:57:00,
2017-02-26 22:02:00,35.9,24.9,30.07,ESE,106,0.0,6.0,64,0.00,,,0.00,WeatherCatV2.41B14,2017-02-27 03:02:00,